Location: Squirrel Cove
(50.1074°N, 124.9139°W)
Time: 18:11:15
(UTC-08:00)

Envisat - Pass Details

Date: 02 December 2022
Orbit: 763 x 765 km, 98.2° (Epoch: 05 February)

Event Time Altitude Azimuth Distance (km) Brightness Sun altitude
Rises 03:37:51 0° 23° (NNE) 3,246 6.7 -40.7°
Reaches altitude 10° 03:40:33 10° 37° (NE) 2,314 5.9 -40.3°
Enters shadow 03:42:01 17° 49° (NE) 1,893 5.5 -40.0°
